EN

Hourly Weather Ladihino

Today, 26 July, Monday

Time Temperature Precipitation Wind Pressure Humidity
00:00 +16°C° 0 mm 1 mps 751 mmHg 64%
01:00 +16°C° 0 mm 1 mps 751 mmHg 66%
02:00 +15°C° 0 mm 1 mps 752 mmHg 67%
03:00 +15°C° 0 mm 1 mps 752 mmHg 68%
04:00 +15°C° 0 mm 1 mps 752 mmHg 69%
05:00 +15°C° 0 mm 1 mps 752 mmHg 70%
06:00 +19°C° 0 mm 1 mps 752 mmHg 64%
07:00 +21°C° 0 mm 1 mps 752 mmHg 58%
08:00 +24°C° 0 mm 1 mps 752 mmHg 52%
09:00 +25°C° 0 mm 1 mps 752 mmHg 48%
10:00 +27°C° 0 mm 1 mps 752 mmHg 43%
11:00 +29°C° 0 mm 1 mps 752 mmHg 38%
12:00 +30°C° 0 mm 1 mps 752 mmHg 36%
13:00 +30°C° 0 mm 1 mps 751 mmHg 33%
14:00 +31°C° 0 mm 1 mps 751 mmHg 31%
15:00 +31°C° 0 mm 1 mps 751 mmHg 32%
16:00 +30°C° 0 mm 1 mps 751 mmHg 34%
17:00 +28°C° 0 mm 0 mps 751 mmHg 35%
18:00 +28°C° 0 mm 1 mps 751 mmHg 42%
19:00 +26°C° 0 mm 1 mps 751 mmHg 48%
20:00 +24°C° 0 mm 1 mps 751 mmHg 55%
21:00 +23°C° 0 mm 1 mps 751 mmHg 57%
22:00 +23°C° 0 mm 1 mps 751 mmHg 59%
23:00 +22°C° 0 mm 1 mps 751 mmHg 61%

Tomorrow, 27 July, Tuesday

Time Temperature Precipitation Wind Pressure Humidity
00:00 +22°C° 0 mm 1 mps 751 mmHg 63%
01:00 +21°C° 0 mm 1 mps 751 mmHg 65%
02:00 +21°C° 0 mm 1 mps 751 mmHg 67%
03:00 +20°C° 0 mm 1 mps 751 mmHg 70%
04:00 +20°C° 0 mm 1 mps 751 mmHg 72%
05:00 +19°C° 0 mm 1 mps 751 mmHg 75%
06:00 +20°C° 0 mm 2 mps 751 mmHg 69%
07:00 +23°C° 0 mm 2 mps 751 mmHg 63%
08:00 +25°C° 0 mm 2 mps 751 mmHg 58%
09:00 +27°C° 0 mm 2 mps 751 mmHg 51%
10:00 +28°C° 0 mm 2 mps 751 mmHg 45%
11:00 +30°C° 0 mm 2 mps 750 mmHg 38%
12:00 +30°C° 0 mm 2 mps 750 mmHg 39%
13:00 +30°C° 0 mm 2 mps 750 mmHg 40%
14:00 +30°C° 0 mm 2 mps 749 mmHg 41%
15:00 +29°C° 0 mm 2 mps 749 mmHg 43%
16:00 +29°C° 0 mm 2 mps 749 mmHg 45%
17:00 +28°C° 0 mm 2 mps 748 mmHg 47%
18:00 +26°C° 0 mm 2 mps 748 mmHg 52%
19:00 +25°C° 0 mm 2 mps 748 mmHg 57%
20:00 +24°C° 0 mm 2 mps 747 mmHg 62%
21:00 +23°C° 0 mm 2 mps 747 mmHg 65%
22:00 +21°C° 0 mm 2 mps 747 mmHg 67%
23:00 +20°C° 0 mm 2 mps 747 mmHg 70%

Day after tomorrow, 28 July, Wednesday

Time Temperature Precipitation Wind Pressure Humidity
00:00 +20°C° 0 mm 3 mps 747 mmHg 72%
01:00 +20°C° 0 mm 3 mps 746 mmHg 74%
02:00 +20°C° 0 mm 4 mps 746 mmHg 76%
03:00 +20°C° 0.3 mm 3 mps 746 mmHg 83%
04:00 +19°C° 0.3 mm 3 mps 745 mmHg 90%
05:00 +18°C° 0.3 mm 3 mps 745 mmHg 97%
06:00 +19°C° 1 mm 3 mps 745 mmHg 97%
07:00 +19°C° 1 mm 3 mps 744 mmHg 97%
08:00 +19°C° 1 mm 3 mps 744 mmHg 97%
09:00 +19°C° 0.3 mm 3 mps 744 mmHg 97%
10:00 +19°C° 0.3 mm 3 mps 743 mmHg 97%
11:00 +19°C° 0.3 mm 3 mps 743 mmHg 97%
12:00 +20°C° 0.5 mm 3 mps 743 mmHg 95%
13:00 +21°C° 0.5 mm 3 mps 743 mmHg 93%
14:00 +23°C° 0.5 mm 2 mps 742 mmHg 91%
15:00 +22°C° 0.9 mm 3 mps 742 mmHg 91%
16:00 +22°C° 0.9 mm 3 mps 742 mmHg 91%
17:00 +22°C° 0.9 mm 4 mps 742 mmHg 92%
18:00 +21°C° 0.3 mm 3 mps 742 mmHg 92%
19:00 +21°C° 0.3 mm 3 mps 742 mmHg 93%
20:00 +20°C° 0.3 mm 3 mps 742 mmHg 94%
21:00 +19°C° 0 mm 2 mps 742 mmHg 94%
22:00 +18°C° 0 mm 2 mps 742 mmHg 95%
23:00 +18°C° 0 mm 2 mps 742 mmHg 96%

29 July, Thursday

Time Temperature Precipitation Wind Pressure Humidity
00:00 +17°C° 0 mm 2 mps 742 mmHg 96%
01:00 +17°C° 0 mm 2 mps 742 mmHg 96%
02:00 +17°C° 0 mm 2 mps 742 mmHg 96%
03:00 +17°C° 0 mm 2 mps 742 mmHg 96%
04:00 +17°C° 0 mm 2 mps 742 mmHg 96%
05:00 +17°C° 0 mm 2 mps 742 mmHg 96%
06:00 +18°C° 0 mm 3 mps 743 mmHg 88%
07:00 +19°C° 0 mm 3 mps 743 mmHg 80%
08:00 +21°C° 0 mm 4 mps 743 mmHg 72%
09:00 +23°C° 0 mm 4 mps 743 mmHg 62%
10:00 +25°C° 0 mm 5 mps 743 mmHg 53%
11:00 +27°C° 0 mm 5 mps 743 mmHg 43%
12:00 +28°C° 0 mm 5 mps 743 mmHg 40%
13:00 +28°C° 0 mm 5 mps 743 mmHg 37%
14:00 +29°C° 0 mm 5 mps 743 mmHg 34%
15:00 +29°C° 0 mm 5 mps 743 mmHg 37%
16:00 +29°C° 0 mm 4 mps 742 mmHg 39%
17:00 +28°C° 0 mm 4 mps 742 mmHg 41%
18:00 +26°C° 0 mm 3 mps 742 mmHg 48%
19:00 +25°C° 0 mm 3 mps 742 mmHg 56%
20:00 +22°C° 0 mm 3 mps 742 mmHg 63%
21:00 +20°C° 0 mm 3 mps 743 mmHg 68%
22:00 +19°C° 0 mm 2 mps 743 mmHg 73%
23:00 +18°C° 0 mm 2 mps 743 mmHg 78%

30 July, Friday

Time Temperature Precipitation Wind Pressure Humidity
00:00 +17°C° 0 mm 2 mps 743 mmHg 80%
01:00 +17°C° 0 mm 2 mps 743 mmHg 82%
02:00 +16°C° 0 mm 2 mps 743 mmHg 84%
03:00 +16°C° 0 mm 2 mps 743 mmHg 85%
04:00 +16°C° 0 mm 2 mps 743 mmHg 86%
05:00 +16°C° 0 mm 2 mps 744 mmHg 87%
06:00 +18°C° 0 mm 2 mps 744 mmHg 79%
07:00 +20°C° 0 mm 2 mps 744 mmHg 70%
08:00 +24°C° 0 mm 2 mps 744 mmHg 62%
09:00 +25°C° 0 mm 2 mps 743 mmHg 55%
10:00 +27°C° 0 mm 2 mps 743 mmHg 49%
11:00 +28°C° 0 mm 3 mps 743 mmHg 42%
12:00 +28°C° 0 mm 2 mps 743 mmHg 45%
13:00 +27°C° 0 mm 2 mps 743 mmHg 47%
14:00 +27°C° 0 mm 2 mps 742 mmHg 50%
15:00 +27°C° 0 mm 2 mps 742 mmHg 47%
16:00 +28°C° 0 mm 2 mps 742 mmHg 45%
17:00 +28°C° 0 mm 2 mps 742 mmHg 42%
18:00 +26°C° 0 mm 2 mps 741 mmHg 50%
19:00 +24°C° 0 mm 2 mps 741 mmHg 58%
20:00 +21°C° 0 mm 2 mps 741 mmHg 67%
21:00 +20°C° 0 mm 2 mps 741 mmHg 70%
22:00 +20°C° 0 mm 2 mps 740 mmHg 73%
23:00 +19°C° 0 mm 2 mps 740 mmHg 77%

31 July, Saturday

Time Temperature Precipitation Wind Pressure Humidity
00:00 +19°C° 0 mm 2 mps 740 mmHg 76%
01:00 +19°C° 0 mm 2 mps 740 mmHg 76%
02:00 +19°C° 0 mm 2 mps 740 mmHg 76%
03:00 +19°C° 0 mm 2 mps 740 mmHg 76%
04:00 +19°C° 0 mm 2 mps 739 mmHg 77%
05:00 +19°C° 0 mm 2 mps 739 mmHg 77%
06:00 +19°C° 0.4 mm 3 mps 739 mmHg 83%
07:00 +19°C° 0.4 mm 3 mps 739 mmHg 89%
08:00 +19°C° 0.4 mm 3 mps 739 mmHg 95%
09:00 +19°C° 0.2 mm 3 mps 739 mmHg 95%
10:00 +20°C° 0.2 mm 3 mps 739 mmHg 94%
11:00 +20°C° 0.2 mm 3 mps 739 mmHg 93%
12:00 +22°C° 0.6 mm 3 mps 738 mmHg 81%
13:00 +25°C° 0.6 mm 4 mps 738 mmHg 70%
14:00 +26°C° 0.6 mm 4 mps 738 mmHg 58%
15:00 +26°C° 0 mm 4 mps 738 mmHg 53%
16:00 +26°C° 0 mm 4 mps 739 mmHg 49%
17:00 +27°C° 0 mm 5 mps 739 mmHg 44%
18:00 +25°C° 0 mm 4 mps 739 mmHg 49%
19:00 +22°C° 0 mm 4 mps 739 mmHg 54%
20:00 +20°C° 0 mm 3 mps 740 mmHg 59%
21:00 +19°C° 0 mm 3 mps 740 mmHg 64%
22:00 +17°C° 0 mm 3 mps 740 mmHg 69%
23:00 +16°C° 0 mm 2 mps 741 mmHg 74%
Show more